Airfield :
LOGIN :

Register | Disclaimer

   EN    FR    IT 

 










Legend :    VFR   Marginal VFR   IFR   Intensive IFR   Very Intensive IFR
Visi :
Ceiling :
>= 8 km
>= 3000ft
5 to 8 km
1000 to 3000 ft
1500m to 5 km
500 to 1000 ft
800 to 1500m
200 to 500 ft
< 800m
< 200 ft
Symbols :   Thunderstorms  Fog  Heavy snow  Heavy precipitations  Wind > 20 kt
SIGMETs :     Misc.  Thunderstorms  Icing  Turbulence  Mountain Waves  Volcanic Ashes







- Airport Elevation : 79 ft
- IATA code : NSY


LICZ - Sigonella (Mil) Catania

CURRENT METAR :
  • 231355Z 07015KT 9999 FEW030 SCT090 30/12 Q1016 RMK SCT VIS MIN 9999 WIND THR28 /////KT WIND THR10 07014KT A3003 BLU

EXPIRED METARs :
  • 231255Z 06017KT 9999 SCT030 SCT090 30/11 Q1017 RMK BKN VIS MIN 9999 WIND THR28 /////KT WIND THR10 06017KT A3004 BLU
  • 231155Z 06017KT 9999 SCT040 30/11 Q1017 RMK BKN BKN150 VIS MIN 9999 WIND THR28 /////KT WIND THR10 07016KT A3005 BLU

TAF TAF LICZ
Valid from the 23 at 15:00 until the 24 at 00:00 UTC


231400Z 2315/2324 09015KT 9999 FEW030 SCT080
TEMPO 2319/2324 VRB03KT CAVOK
No reported NOTAMs for that airfield.



MET'MAP, your aeronautical weather chart ! - Copyright ORBIFLY December 2007 - Disclaimer

ORBIFLY MET'MAP TEAM :

Programming & Development : Alexandra Zaïnal
Concept & Development : Baudouin d'Aumeries
Co-Development & Prog : Marc-Olivier Méhu
Technical & hardware support : Manuel Goepfert

Contact : metmap@orbifly.com




SOURCES & CREDITS :

   NOAA